Terug naar catalogus

THOR BURNER 2 R/B

ActiefPO
NORAD 2985·ROCKET BODY·🇺🇸 United States

Gelanceerd Oct 11, 1967 vanaf Vandenberg Space Force Base

Loading…

Volgende Passages (komende 24 uur)

TLE

VersSource: Space-Track

Epoch: Sep 14, 2026, 20:17 UTC

1 02985U 67096B   26257.84550918  .00000494  00000-0  89383-4 0  9996
2 02985  99.1518 304.0904 0082733 149.5604 211.0439 14.69637685106362

Volg THOR BURNER 2 R/B in realtime met AllMySat

Download on the App Store